Radiation Dose at Monitoring Post of Fukushima Daini Nuclear Power Station
Date,Time,MP-1(microSv/h),MP-2(microSv/h),MP-3(microSv/h),MP-4(microSv/h),MP-5(microSv/h),MP-6(microSv/h),MP-7(microSv/h),Wind Direction,Wind Velocity(m/s),Rain
2020/04/26,00:00,0.174,0.161,0.267,0.243,0.256,0.138,0.083,south-southwest,8.3,No
2020/04/26,00:10,0.173,0.161,0.267,0.243,0.256,0.137,0.083,south-southwest,8.4,No
2020/04/26,00:20,0.174,0.159,0.266,0.243,0.255,0.138,0.084,south-southwest,9.2,No
2020/04/26,00:30,0.174,0.160,0.267,0.243,0.257,0.138,0.084,south-southwest,8.4,No
2020/04/26,00:40,0.174,0.160,0.268,0.242,0.256,0.138,0.083,south-southwest,8.1,No
2020/04/26,00:50,0.173,0.159,0.267,0.244,0.256,0.138,0.084,south-southwest,8.1,No
2020/04/26,01:00,0.173,0.160,0.266,0.244,0.258,0.138,0.084,south-southwest,8.6,No
2020/04/26,01:10,0.173,0.160,0.269,0.244,0.256,0.138,0.083,south-southwest,9.2,No
2020/04/26,01:20,0.174,0.159,0.267,0.243,0.257,0.138,0.083,south-southwest,8.1,No
2020/04/26,01:30,0.173,0.160,0.267,0.244,0.257,0.137,0.083,south-southwest,9.0,No
2020/04/26,01:40,0.174,0.159,0.267,0.243,0.256,0.138,0.083,south-southwest,7.6,No
2020/04/26,01:50,0.175,0.159,0.267,0.243,0.256,0.139,0.083,south-southwest,7.4,No
2020/04/26,02:00,0.174,0.159,0.266,0.243,0.256,0.138,0.083,south-southwest,7.6,No
2020/04/26,02:10,0.173,0.160,0.268,0.243,0.257,0.137,0.084,south-southwest,8.1,No
2020/04/26,02:20,0.173,0.160,0.267,0.244,0.257,0.138,0.083,south-southwest,7.4,No
2020/04/26,02:30,0.174,0.159,0.268,0.244,0.256,0.137,0.083,south-southwest,8.3,No
2020/04/26,02:40,0.175,0.159,0.268,0.242,0.256,0.137,0.084,south-southwest,7.4,No
2020/04/26,02:50,0.173,0.159,0.267,0.244,0.257,0.137,0.083,south-southwest,7.0,No
2020/04/26,03:00,0.173,0.161,0.266,0.243,0.256,0.137,0.083,south-southwest,6.6,No
2020/04/26,03:10,0.175,0.160,0.268,0.243,0.257,0.138,0.084,south-southwest,6.8,No
2020/04/26,03:20,0.175,0.159,0.266,0.244,0.257,0.138,0.083,south-southwest,6.5,No
2020/04/26,03:30,0.173,0.160,0.267,0.244,0.257,0.139,0.083,southwest,7.0,No
2020/04/26,03:40,0.174,0.161,0.268,0.245,0.257,0.138,0.084,south-southwest,6.0,No
2020/04/26,03:50,0.174,0.159,0.267,0.245,0.257,0.138,0.083,south-southwest,4.7,No
2020/04/26,04:00,0.174,0.160,0.266,0.244,0.256,0.138,0.084,south-southwest,4.9,No
2020/04/26,04:10,0.176,0.160,0.267,0.244,0.257,0.138,0.083,south-southwest,4.9,No
2020/04/26,04:20,0.175,0.159,0.267,0.244,0.256,0.138,0.083,southwest,4.9,No
2020/04/26,04:30,0.173,0.159,0.268,0.244,0.257,0.138,0.083,south-southwest,3.9,No
2020/04/26,04:40,0.175,0.159,0.269,0.242,0.257,0.138,0.083,south-southwest,3.8,No
2020/04/26,04:50,0.174,0.160,0.269,0.244,0.256,0.138,0.083,southwest,4.2,No
2020/04/26,05:00,0.173,0.159,0.268,0.245,0.256,0.137,0.084,southwest,4.7,No
2020/04/26,05:10,0.175,0.159,0.268,0.244,0.257,0.138,0.083,south-southwest,4.6,No
2020/04/26,05:20,0.174,0.160,0.268,0.243,0.254,0.138,0.084,south-southwest,3.6,No
2020/04/26,05:30,0.175,0.159,0.266,0.244,0.256,0.138,0.084,south-southwest,3.8,No
2020/04/26,05:40,0.175,0.159,0.268,0.244,0.256,0.139,0.083,southwest,4.4,No
2020/04/26,05:50,0.174,0.160,0.267,0.244,0.256,0.138,0.083,south-southwest,4.6,No
2020/04/26,06:00,0.173,0.159,0.268,0.244,0.255,0.138,0.084,south-southwest,3.6,No
2020/04/26,06:10,0.175,0.160,0.268,0.244,0.257,0.138,0.083,south-southwest,3.2,No
2020/04/26,06:20,0.173,0.160,0.266,0.243,0.255,0.139,0.084,south-southwest,3.1,No
2020/04/26,06:30,0.173,0.159,0.266,0.244,0.256,0.138,0.083,south-southwest,3.1,No
2020/04/26,06:40,0.174,0.159,0.267,0.244,0.256,0.138,0.084,south,3.2,No
2020/04/26,06:50,0.174,0.159,0.267,0.243,0.256,0.138,0.083,south-southeast,3.1,No
2020/04/26,07:00,0.175,0.159,0.266,0.245,0.258,0.137,0.084,south-southeast,3.4,No
2020/04/26,07:10,0.174,0.159,0.267,0.243,0.256,0.138,0.083,south-southeast,4.6,No
2020/04/26,07:20,0.174,0.160,0.265,0.244,0.259,0.138,0.084,south,5.8,No
2020/04/26,07:30,0.175,0.159,0.267,0.242,0.255,0.138,0.083,south,5.5,No
2020/04/26,07:40,0.173,0.160,0.265,0.244,0.256,0.137,0.084,south-southeast,4.9,No
2020/04/26,07:50,0.174,0.158,0.266,0.243,0.256,0.137,0.083,south,5.1,No
2020/04/26,08:00,0.173,0.160,0.268,0.242,0.255,0.138,0.084,south,4.4,No
2020/04/26,08:10,0.175,0.158,0.265,0.244,0.256,0.138,0.084,south,4.3,No
2020/04/26,08:20,0.172,0.158,0.268,0.241,0.256,0.138,0.083,south,4.5,No
2020/04/26,08:30,0.175,0.159,0.267,0.243,0.256,0.138,0.084,south-southeast,4.5,No
2020/04/26,08:40,0.173,0.158,0.264,0.243,0.257,0.137,0.083,south-southeast,4.9,No
2020/04/26,08:50,0.173,0.159,0.268,0.240,0.254,0.139,0.084,south-southeast,5.8,No
2020/04/26,09:00,0.174,0.158,0.267,0.244,0.257,0.138,0.083,south-southeast,6.4,No
2020/04/26,09:10,0.172,0.159,0.265,0.243,0.255,0.137,0.084,south-southeast,6.8,No
2020/04/26,09:20,0.173,0.159,0.267,0.242,0.255,0.138,0.083,south-southeast,7.1,No
2020/04/26,09:30,0.174,0.159,0.268,0.243,0.257,0.137,0.083,south,6.2,No
2020/04/26,09:40,0.172,0.160,0.266,0.245,0.254,0.139,0.084,south,8.1,No
2020/04/26,09:50,0.175,0.159,0.264,0.243,0.255,0.138,0.084,south,8.4,No
2020/04/26,10:00,0.173,0.160,0.268,0.242,0.258,0.137,0.083,south,8.5,No
2020/04/26,10:10,0.171,0.158,0.269,0.243,0.255,0.138,0.083,south,6.6,No
2020/04/26,10:20,0.172,0.159,0.266,0.243,0.253,0.137,0.083,south,7.3,No
2020/04/26,10:30,0.175,0.159,0.264,0.241,0.258,0.136,0.083,south,7.9,No
2020/04/26,10:40,0.173,0.159,0.266,0.244,0.257,0.137,0.084,south,9.8,No
2020/04/26,10:50,0.172,0.159,0.268,0.244,0.255,0.137,0.084,south-southeast,9.2,No
2020/04/26,11:00,0.173,0.160,0.269,0.242,0.257,0.137,0.082,south-southeast,7.6,No
2020/04/26,11:10,0.174,0.160,0.268,0.244,0.257,0.138,0.084,south,7.8,No
2020/04/26,11:20,0.172,0.159,0.265,0.243,0.255,0.138,0.083,south,8.1,No
2020/04/26,11:30,0.172,0.160,0.265,0.244,0.254,0.138,0.083,south,10.6,No
2020/04/26,11:40,0.173,0.161,0.266,0.242,0.256,0.138,0.084,south,10.9,No
2020/04/26,11:50,0.175,0.158,0.268,0.244,0.257,0.139,0.083,south-southeast,10.7,No
2020/04/26,12:00,0.174,0.160,0.272,0.246,0.255,0.138,0.083,south,11.5,No
2020/04/26,12:10,0.172,0.161,0.269,0.243,0.255,0.137,0.084,south,11.2,No
2020/04/26,12:20,0.172,0.160,0.267,0.242,0.255,0.138,0.084,south-southeast,10.4,No
2020/04/26,12:30,0.173,0.159,0.266,0.246,0.258,0.138,0.084,south,9.5,No
2020/04/26,12:40,0.174,0.160,0.266,0.245,0.257,0.138,0.084,south,9.5,No
2020/04/26,12:50,0.174,0.160,0.268,0.244,0.256,0.138,0.083,south,9.8,No
2020/04/26,13:00,0.173,0.159,0.271,0.242,0.253,0.138,0.084,south,9.8,No
2020/04/26,13:10,0.172,0.159,0.270,0.243,0.255,0.138,0.083,south-southeast,8.6,No
2020/04/26,13:20,0.173,0.160,0.269,0.246,0.253,0.137,0.083,south-southeast,10.0,No
2020/04/26,13:30,0.174,0.160,0.267,0.244,0.256,0.138,0.083,south,10.0,No
2020/04/26,13:40,0.174,0.159,0.267,0.243,0.259,0.138,0.084,south,9.5,No
2020/04/26,13:50,0.172,0.161,0.270,0.243,0.258,0.138,0.084,south,9.5,No
2020/04/26,14:00,0.174,0.160,0.269,0.246,0.255,0.138,0.085,south-southeast,9.5,No
2020/04/26,14:10,0.174,0.161,0.268,0.245,0.258,0.139,0.083,south,5.1,No
2020/04/26,14:20,0.174,0.160,0.271,0.246,0.258,0.138,0.083,north-northwest,4.9,No
2020/04/26,14:30,0.175,0.160,0.269,0.244,0.258,0.138,0.084,northwest,7.4,No
2020/04/26,14:40,0.173,0.160,0.270,0.246,0.258,0.139,0.084,north-northwest,7.5,No
2020/04/26,14:50,0.175,0.160,0.270,0.244,0.257,0.137,0.084,north-northwest,8.9,No
2020/04/26,15:00,0.175,0.160,0.269,0.244,0.260,0.139,0.084,north,9.2,No
2020/04/26,15:10,0.175,0.160,0.271,0.246,0.257,0.139,0.084,north,8.8,No
2020/04/26,15:20,0.174,0.162,0.272,0.244,0.259,0.138,0.084,north,7.3,No
2020/04/26,15:30,0.176,0.159,0.271,0.247,0.258,0.138,0.084,north,6.0,No
2020/04/26,15:40,0.175,0.161,0.272,0.244,0.258,0.139,0.084,north,6.3,No
2020/04/26,15:50,0.175,0.160,0.270,0.246,0.260,0.139,0.085,north,5.4,No
2020/04/26,16:00,0.174,0.161,0.272,0.245,0.257,0.138,0.084,north,3.5,No
2020/04/26,16:10,0.175,0.160,0.270,0.246,0.260,0.139,0.083,north,3.7,No
2020/04/26,16:20,0.174,0.162,0.270,0.245,0.256,0.138,0.084,north,5.2,No
2020/04/26,16:30,0.174,0.160,0.270,0.245,0.258,0.138,0.084,north,4.9,No
2020/04/26,16:40,0.175,0.161,0.270,0.245,0.258,0.138,0.084,north,5.0,No
2020/04/26,16:50,0.175,0.160,0.269,0.246,0.257,0.138,0.083,north,4.8,No
2020/04/26,17:00,0.174,0.160,0.270,0.246,0.260,0.139,0.084,north,4.5,No
2020/04/26,17:10,0.175,0.161,0.270,0.246,0.256,0.138,0.084,north,4.2,No
2020/04/26,17:20,0.175,0.161,0.271,0.246,0.260,0.138,0.085,north-northwest,4.0,No
2020/04/26,17:30,0.176,0.161,0.270,0.245,0.257,0.138,0.084,north-northwest,3.9,No
2020/04/26,17:40,0.175,0.160,0.272,0.244,0.260,0.138,0.085,northwest,4.7,No
2020/04/26,17:50,0.176,0.161,0.269,0.246,0.258,0.138,0.084,northwest,4.1,No
2020/04/26,18:00,0.174,0.161,0.272,0.245,0.260,0.139,0.085,north-northwest,4.8,No
2020/04/26,18:10,0.175,0.160,0.271,0.246,0.258,0.139,0.084,northwest,4.4,No
2020/04/26,18:20,0.174,0.161,0.271,0.245,0.259,0.138,0.084,northwest,4.4,No
2020/04/26,18:30,0.175,0.161,0.271,0.246,0.257,0.138,0.084,northwest,5.4,No
2020/04/26,18:40,0.174,0.161,0.270,0.246,0.257,0.138,0.084,northwest,4.9,No
2020/04/26,18:50,0.175,0.161,0.272,0.245,0.258,0.139,0.084,north-northwest,4.8,No
2020/04/26,19:00,0.176,0.160,0.270,0.244,0.258,0.138,0.084,north-northwest,3.9,No
2020/04/26,19:10,0.175,0.160,0.272,0.245,0.256,0.138,0.084,northwest,4.0,No
2020/04/26,19:20,0.175,0.160,0.270,0.246,0.256,0.138,0.084,north-northwest,5.4,No
2020/04/26,19:30,0.175,0.161,0.272,0.246,0.258,0.138,0.084,north-northwest,5.6,Yes
2020/04/26,19:40,0.175,0.161,0.270,0.247,0.257,0.139,0.084,north-northwest,5.8,Yes
2020/04/26,19:50,0.174,0.161,0.270,0.244,0.257,0.139,0.084,northwest,4.4,Yes
2020/04/26,20:00,0.176,0.162,0.274,0.245,0.258,0.140,0.084,northwest,5.3,Yes
2020/04/26,20:10,0.177,0.162,0.272,0.247,0.260,0.140,0.086,northwest,6.3,Yes
2020/04/26,20:20,0.178,0.164,0.275,0.249,0.261,0.141,0.088,northwest,6.4,Yes
2020/04/26,20:30,0.180,0.165,0.275,0.249,0.263,0.141,0.087,northwest,6.3,Yes
2020/04/26,20:40,0.179,0.163,0.274,0.248,0.262,0.144,0.087,northwest,4.7,Yes
2020/04/26,20:50,0.180,0.165,0.275,0.248,0.260,0.142,0.088,west-northwest,5.8,Yes
2020/04/26,21:00,0.178,0.165,0.274,0.249,0.262,0.142,0.089,west-northwest,4.7,Yes
2020/04/26,21:10,0.180,0.166,0.274,0.249,0.260,0.143,0.089,west-northwest,4.9,Yes
2020/04/26,21:20,0.180,0.165,0.275,0.249,0.261,0.143,0.089,west-northwest,3.9,Yes
2020/04/26,21:30,0.179,0.167,0.273,0.251,0.263,0.146,0.092,north,6.0,Yes
2020/04/26,21:40,0.182,0.168,0.275,0.249,0.264,0.147,0.093,northwest,5.1,Yes
2020/04/26,21:50,0.181,0.169,0.275,0.249,0.265,0.148,0.094,north,3.8,No
2020/04/26,22:00,0.181,0.167,0.273,0.249,0.262,0.147,0.092,north,4.5,No
2020/04/26,22:10,0.181,0.166,0.272,0.247,0.262,0.145,0.091,north,3.7,No
2020/04/26,22:20,0.178,0.164,0.273,0.247,0.262,0.145,0.091,north,4.3,No
2020/04/26,22:30,0.178,0.164,0.269,0.246,0.259,0.143,0.090,north,3.5,No
2020/04/26,22:40,0.177,0.163,0.269,0.242,0.259,0.142,0.088,north,2.6,No
2020/04/26,22:50,0.175,0.162,0.268,0.243,0.258,0.141,0.087,north-northwest,2.3,Yes
2020/04/26,23:00,0.176,0.162,0.267,0.244,0.258,0.140,0.086,northwest,2.3,Yes
2020/04/26,23:10,0.174,0.161,0.269,0.243,0.257,0.141,0.085,north-northwest,1.9,Yes
2020/04/26,23:20,0.175,0.161,0.268,0.242,0.256,0.139,0.086,north,1.4,Yes
2020/04/26,23:30,0.175,0.161,0.269,0.243,0.258,0.140,0.086,west,0.7,Yes
2020/04/26,23:40,0.175,0.162,0.268,0.243,0.257,0.141,0.086,northwest,1.7,Yes
2020/04/26,23:50,0.177,0.161,0.266,0.243,0.257,0.139,0.085,northwest,5.4,Yes
